Regional Weather Roundup
Issued by NWS Sioux Falls, SD

Home | Current Version | Previous Version | Graphics & Text | Print | Product List | Glossary On
Versions: 1 2 3 4 5 6 7 8 9 10 11 12 13 14 15 16 17 18 19 20 21 22 23 24 25 26 27 28 29 30 31 32 33 34 35 36 37 38 39 40 41 42 43 44 45 46 47 48 49 50
000
ASUS43 KFSD 281202
RWRFSD

WEATHER ROUNDUP FOR SE SOUTH DAKOTA/SW MINNESOTA/NW IOWA
NATIONAL WEATHER SERVICE SIOUX FALLS SD
600 AM CST SAT FEB 28 2015

NOTE: "FAIR" INDICATES FEW OR NO CLOUDS BELOW 12,000 FEET WITH NO
SIGNIFICANT WEATHER AND OR OBSTRUCTIONS TO VISIBILITY.


SDZ038>040-050-052>070-281300-
SOUTHEAST SOUTH DAKOTA

CITY           SKY/WX    TMP DP  RH WIND       PRES   REMARKS
CHAMBERLAIN    NOT AVBL
HURON          PTCLDY     6  -1  73 S14       30.28S WCI -11
6HR MIN TEMP:   6; 6HR MAX TEMP:   8;

MADISON        FAIR       0  -2  92 S10       30.32S WCI -17
MITCHELL       CLEAR      8   1  73 S15       30.33S WCI  -9
6HR MIN TEMP:   7; 6HR MAX TEMP:  10;

SIOUX FALLS    CLEAR      4  -3  73 S13       30.37S WCI -13
6HR MIN TEMP:   4; 6HR MAX TEMP:   6;

WINNER         FAIR      12   2  64 S17       30.18F WCI  -5
YANKTON        FAIR       5   0  78 CALM      30.40R
$$

MNZ071-072-080-081-089-090-097-098-281300-
SOUTHWEST MINNESOTA

CITY           SKY/WX    TMP DP  RH WIND       PRES   REMARKS
FAIRMONT       PTCLDY    -6  -9  84 S9        30.46S WCI -22
JACKSON        PTCLDY     0  -6  78 S10       30.44S WCI -17
LUVERNE        PTCLDY    -4  -8  84 CALM      30.41S
MARSHALL       PTCLDY     3  -2  78 SW17      30.39S WCI -17
6HR MIN TEMP:   3; 6HR MAX TEMP:   3;

MONTEVIDEO     PTCLDY     0  -4  85 S8        30.40S WCI -15
PIPESTONE      PTCLDY    -2  -8  78 S7        30.35S WCI -16
REDWOOD FALLS  PTCLDY    -7 -11  83 SE7       30.45S WCI -21
TRACY          PTCLDY     4  -3  73 S13       30.39S WCI -13
WINDOM         PTCLDY     0  -6  78 S8        30.42S WCI -15
WORTHINGTON    PTCLDY    21 -13  21 S10       30.41F WCI  10
$$

IAZ001>003-012>014-020>022-031-032-NEZ013-014-SDZ071-281300-
NORTHWEST IOWA

CITY           SKY/WX    TMP DP  RH WIND       PRES   REMARKS
DENISON        MOCLDY     3  -2  78 CALM      30.47S
ESTHERVILLE    CLEAR    -11 -15  82 S9        30.46F WCI -29
SIOUX CITY     MOCLDY     2  -3  80 E8        30.46S WCI -12
6HR MIN TEMP:   0; 6HR MAX TEMP:   3;

SPENCER        PTCLDY    -4  -9  79 S8        30.46R WCI -19
6HR MIN TEMP:  -6; 6HR MAX TEMP:   0;

$$

ABBREVIATIONS USED IN REMARKS
   TC - TEMPERATURE IN CELSIUS
  WCI - WIND CHILL INDEX
   HX - HEAT INDEX
  VSB - VISIBILITY




USA.gov is the U.S. government's official web portal to all federal, state and local government web resources and services.